[[{"header":{"parameterUnit":"m.s-1","parameterCategory":1,"la1":30.2991,"la2":30.254,"lo1":-89.0895,"lo2":-89.0444,"dy":0.0017,"dx":0.0017,"nx":28,"ny":28,"refTime":"2025-08-18T21:00:00:Z","depth":0,"parameterNumber":2,"parameterNumberName":"U-component_of_WINDS"},"data":[0,0,0,0,0,0,0,0,0,0,0,0,0,0,0,0,0,0,0,0,0,0,0,0,0,0,0,0,0,0,0,0,0,0,0,0,0,0,0,0,0,0,0,0,0,0,0,0,0,0,0,0,0,0,0,0,0,0,0.2046,0.2046,0,0.2037,0.2036,0.2036,0.2025,0.2025,0.2025,0.2025,0.2015,0.2015,0.2015,0,0,0,0,0,0,0,0,0,0,0,0,0,0.2054,0.2054,0.2046,0.2046,0.2046,0.2037,0.2036,0.2036,0.2025,0.2025,0.2025,0.2025,0.2015,0.2015,0.2015,0,0,0,0,0,0,0,0,0,0,0,0,0,0.2048,0.2054,0.2046,0.2039,0.2038,0.2037,0.2036,0.2036,0.2025,0.2025,0.2025,0.2025,0.2015,0.2015,0.2015,0.2019,0,0,0.2014,0.2014,0,0,0,0,0,0,0,0,0.2048,0.2048,0.204,0.2039,0.2039,0.2032,0.2036,0.203,0.2025,0.203,0.2025,0.2024,0.2021,0.202,0.2019,0.2019,0.2018,0.2014,0.2014,0.2014,0.2014,0,0,0,0,0,0,0,0.2049,0.2048,0.2042,0.204,0.2039,0.2036,0.2035,0.2035,0.2027,0.203,0.2029,0.2028,0.202,0.2019,0.2019,0.2018,0.2014,0.2014,0.2014,0.2014,0.2021,0.2021,0,0,0,0,0,0,0.205,0.2049,0.2042,0.2042,0.2043,0.2036,0.2035,0.2034,0.2027,0.2026,0.2028,0.2028,0.202,0.2019,0.2018,0.2023,0.2014,0.2014,0.2014,0.2021,0.2021,0.2021,0,0,0,0,0,0,0.2051,0.205,0.2043,0.2045,0.2044,0.2037,0.2036,0.2034,0.2033,0.2026,0.2024,0.2028,0.2019,0.2018,0.2019,0.2022,0.2014,0.2014,0.202,0.2021,0.2021,0.2031,0,0,0,0,0,0,0.2051,0.205,0.2051,0.2045,0.2044,0.2044,0.2036,0.2034,0.2033,0.2032,0.2026,0.2024,0.2019,0.2019,0.2019,0.2022,0.2014,0.202,0.202,0.2021,0.2031,0.2032,0.2033,0,0,0,0,0,0.2051,0.2055,0.2052,0.2051,0.2045,0.2044,0.2043,0.2037,0.2033,0.2034,0.203,0.2025,0.2022,0.2019,0.2019,0.2022,0.202,0.202,0.2021,0.203,0.2032,0.2033,0,0,0,0,0,0,0.2061,0.2054,0.205,0.2052,0.2049,0.2042,0.2043,0.2039,0.2037,0.2036,0.2028,0.2027,0.2028,0.2025,0.2022,0.2026,0.202,0.2021,0.2027,0.2029,0.203,0.2031,0.2014,0,0,0,0,0,0.2064,0.2063,0.2057,0.2059,0.2057,0.2051,0.205,0.2045,0.2042,0.204,0.2036,0.2032,0.2031,0.203,0.2028,0.2031,0.2029,0.2032,0.2034,0.2035,0.2035,0.2036,0.2038,0.2023,0.2023,0.2023,0,0,0.2069,0.2065,0.2065,0.2061,0.2057,0.2057,0.205,0.2049,0.2049,0.204,0.204,0.2037,0.2033,0.2034,0.2035,0.2032,0.2039,0.2036,0.2037,0.2036,0.2037,0.2038,0.204,0.2024,0.2023,0.2023,0,0,0.2077,0.2074,0.2076,0.2073,0.2069,0.2064,0.2065,0.2059,0.2057,0.2057,0.205,0.205,0.2047,0.2044,0.2043,0.2051,0.2046,0.2051,0.2057,0.2058,0.2059,0.206,0.2063,0.2064,0.2051,0.2051,0.2051,0,0.2084,0.2083,0.2077,0.2077,0.2076,0.2068,0.2069,0.2067,0.2062,0.2061,0.2058,0.2055,0.2052,0.2053,0.2055,0.2054,0.2054,0.2051,0.206,0.2061,0.2062,0.2064,0.2065,0.2052,0.2052,0.2052,0.2052,0,0.2091,0.2091,0.2092,0.2088,0.2087,0.2088,0.2082,0.2081,0.2077,0.2073,0.2074,0.207,0.2067,0.2067,0.2063,0.2067,0.2065,0.2061,0.2055,0.2064,0.2066,0.2067,0.2053,0.2052,0.2052,0.2052,0,0,0.2105,0.2098,0.2099,0.2097,0.2092,0.2091,0.2092,0.209,0.2089,0.2086,0.2087,0.2085,0.2081,0.2079,0.2075,0.2076,0.2083,0.2072,0.2071,0.2073,0.2087,0.209,0.2091,0.208,0.208,0.208,0.2087,0,0.2113,0.2113,0.2108,0.211,0.2109,0.2103,0.2103,0.21,0.2097,0.2096,0.2092,0.2091,0.2086,0.2085,0.2086,0.2082,0.2085,0.2081,0.2079,0.2079,0.208,0.2092,0.2095,0.2102,0.2088,0.2088,0.2088,0,0.2121,0.2119,0.2121,0.2116,0.2116,0.2116,0.2114,0.2113,0.211,0.2107,0.2105,0.21,0.2101,0.2096,0.2096,0.2093,0.2092,0.209,0.209,0.2089,0.2084,0.2091,0.2104,0.2105,0.209,0.209,0.2089,0,0.2131,0.2129,0.213,0.2128,0.2123,0.2123,0.2121,0.2117,0.2116,0.2114,0.2113,0.2111,0.211,0.2108,0.2103,0.21,0.2104,0.2098,0.2101,0.2102,0.2102,0.2102,0.2114,0.2102,0.2102,0.2102,0.2102,0,0.214,0.2141,0.2134,0.2134,0.2136,0.213,0.2131,0.2128,0.2125,0.2125,0.2119,0.2119,0.2113,0.2112,0.2108,0.2109,0.2108,0.2106,0.2105,0.2106,0.2106,0.2105,0.2104,0.2103,0.2103,0.2102,0.2102,0,0.215,0.2146,0.2146,0.2141,0.214,0.2141,0.2136,0.2137,0.2133,0.2133,0.2133,0.2127,0.2126,0.2121,0.2118,0.2116,0.2117,0.2116,0.2119,0.2118,0.2121,0.212,0.2132,0.2134,0.2121,0.2121,0.2122,0,0.2156,0.2157,0.2152,0.2151,0.2149,0.2148,0.2147,0.2142,0.2141,0.2138,0.2138,0.2137,0.2135,0.2133,0.2129,0.2127,0.2125,0.2129,0.2124,0.2126,0.2124,0.2124,0.2124,0.213,0.213,0.213,0.213,0,0.2166,0.2164,0.2162,0.216,0.2159,0.2157,0.2155,0.2155,0.2149,0.2149,0.2147,0.2146,0.2144,0.2142,0.2139,0.2137,0.2133,0.2132,0.2132,0.2134,0.2135,0.2134,0.2121,0.2132,0.2131,0.2131,0.2131,0.2131,0.2174,0.2174,0.2171,0.217,0.2168,0.2166,0.2166,0.2162,0.2161,0.2159,0.2156,0.2155,0.2152,0.2148,0.2146,0.2145,0.2143,0.2144,0.2144,0.2144,0.2144,0.2136,0.2145,0.2145,0.2145,0.2145,0.2145,0,0.2183,0.2181,0.218,0.2177,0.2176,0.2173,0.217,0.217,0.2169,0.2166,0.2165,0.2164,0.2162,0.2158,0.2156,0.2156,0.2154,0.2156,0.2155,0.2155,0.2147,0.2146,0.2157,0.2157,0.2157,0.2157,0.2157,0.2157,0.2188,0.2189,0.2186,0.2186,0.2183,0.2182,0.2181,0.218,0.2177,0.2176,0.2175,0.2172,0.2169,0.2167,0.2166,0.2164,0.2164,0.2166,0.2164,0.2157,0.2155,0.2154,0.2154,0.2166,0.2166,0.2172,0.2172,0.2172]},{"header":{"parameterUnit":"m.s-1","parameterCategory":1,"la1":30.2991,"la2":30.254,"lo1":-89.0895,"lo2":-89.0444,"dy":0.0017,"dx":0.0017,"nx":28,"ny":28,"refTime":"2025-08-18T21:00:00:Z","depth":0,"parameterNumber":3,"parameterNumberName":"V-component_of_WINDS"},"data":[0,0,0,0,0,0,0,0,0,0,0,0,0,0,0,0,0,0,0,0,0,0,0,0,0,0,0,0,0,0,0,0,0,0,0,0,0,0,0,0,0,0,0,0,0,0,0,0,0,0,0,0,0,0,0,0,0,0,-0.178,-0.1778,0,-0.1625,-0.1623,-0.1621,-0.1565,-0.1565,-0.1566,-0.1566,-0.1407,-0.1403,-0.1398,0,0,0,0,0,0,0,0,0,0,0,0,0,-0.2028,-0.2023,-0.178,-0.1778,-0.1776,-0.1625,-0.1623,-0.1621,-0.1565,-0.1565,-0.1566,-0.1567,-0.1409,-0.1403,-0.1398,0,0,0,0,0,0,0,0,0,0,0,0,0,-0.1901,-0.2022,-0.178,-0.173,-0.1724,-0.1625,-0.1623,-0.162,-0.1565,-0.1565,-0.1566,-0.1567,-0.1411,-0.1404,-0.1397,-0.1337,0,0,-0.1375,-0.1372,0,0,0,0,0,0,0,0,-0.1908,-0.1892,-0.1739,-0.1733,-0.1726,-0.1615,-0.1652,-0.1525,-0.1564,-0.1625,-0.1566,-0.1567,-0.1476,-0.1463,-0.1432,-0.133,-0.1323,-0.1374,-0.137,-0.1367,-0.1365,0,0,0,0,0,0,0,-0.1917,-0.1898,-0.1718,-0.1737,-0.1729,-0.1715,-0.1698,-0.1628,-0.1548,-0.162,-0.1615,-0.1598,-0.1472,-0.1439,-0.1428,-0.132,-0.1375,-0.1368,-0.1364,-0.1361,-0.1162,-0.1161,0,0,0,0,0,0,-0.1934,-0.1906,-0.1723,-0.1714,-0.1821,-0.171,-0.1691,-0.165,-0.1548,-0.1534,-0.1597,-0.1596,-0.1451,-0.1437,-0.1423,-0.1346,-0.1367,-0.1361,-0.1356,-0.1163,-0.1162,-0.1161,0,0,0,0,0,0,-0.194,-0.1919,-0.1729,-0.1809,-0.1783,-0.1705,-0.1659,-0.1646,-0.1613,-0.1531,-0.1517,-0.1578,-0.1451,-0.1432,-0.1359,-0.134,-0.1357,-0.1351,-0.1164,-0.1163,-0.1161,-0.1193,0,0,0,0,0,0,-0.1947,-0.1921,-0.1897,-0.1809,-0.1779,-0.1668,-0.1658,-0.1643,-0.1601,-0.1598,-0.151,-0.1496,-0.145,-0.137,-0.1352,-0.133,-0.1345,-0.1166,-0.1164,-0.1162,-0.1193,-0.1192,-0.1192,0,0,0,0,0,-0.1956,-0.1912,-0.1896,-0.1874,-0.1748,-0.1667,-0.1651,-0.1599,-0.16,-0.1575,-0.1523,-0.1499,-0.1345,-0.1363,-0.1342,-0.1318,-0.1167,-0.1164,-0.1162,-0.1193,-0.1192,-0.1192,0,0,0,0,0,0,-0.1999,-0.1899,-0.1881,-0.1806,-0.1746,-0.1658,-0.1625,-0.16,-0.1538,-0.1537,-0.1476,-0.1457,-0.1388,-0.1346,-0.1367,-0.1256,-0.1254,-0.1248,-0.1285,-0.1284,-0.1283,-0.1294,-0.1339,0,0,0,0,0,-0.2001,-0.1943,-0.1859,-0.1801,-0.1772,-0.1704,-0.1667,-0.1633,-0.1568,-0.1542,-0.1484,-0.1422,-0.136,-0.132,-0.1258,-0.1187,-0.1167,-0.1161,-0.116,-0.116,-0.1155,-0.1115,-0.1111,-0.1153,-0.1153,-0.1153,0,0,-0.2002,-0.194,-0.1907,-0.1808,-0.1757,-0.17,-0.1683,-0.1622,-0.1579,-0.1532,-0.1459,-0.1415,-0.1342,-0.127,-0.1235,-0.1232,-0.1139,-0.1157,-0.1158,-0.1152,-0.1112,-0.1108,-0.1105,-0.1151,-0.1152,-0.1152,0,0,-0.1974,-0.1921,-0.1868,-0.1818,-0.1741,-0.1697,-0.1684,-0.16,-0.1569,-0.1495,-0.146,-0.1408,-0.1302,-0.1251,-0.1211,-0.1167,-0.1142,-0.1149,-0.1145,-0.1107,-0.1104,-0.1101,-0.1085,-0.108,-0.1144,-0.1144,-0.1144,0,-0.1984,-0.1895,-0.1843,-0.1784,-0.1742,-0.1699,-0.1645,-0.1598,-0.1506,-0.1478,-0.1476,-0.1343,-0.1291,-0.1207,-0.1196,-0.1166,-0.115,-0.1157,-0.1109,-0.1105,-0.1101,-0.1085,-0.1079,-0.1145,-0.1145,-0.1145,-0.1145,0,-0.1913,-0.1852,-0.1818,-0.173,-0.1684,-0.1628,-0.1567,-0.1528,-0.1499,-0.1455,-0.138,-0.1317,-0.1241,-0.1219,-0.119,-0.1131,-0.1132,-0.1121,-0.1118,-0.1099,-0.1083,-0.1076,-0.1147,-0.1147,-0.1146,-0.1146,0,0,-0.1905,-0.179,-0.1779,-0.1739,-0.1652,-0.1604,-0.1547,-0.1474,-0.1441,-0.1379,-0.1329,-0.1242,-0.1231,-0.1187,-0.1152,-0.1118,-0.1088,-0.1111,-0.1108,-0.1108,-0.1019,-0.1028,-0.1021,-0.1072,-0.107,-0.1069,-0.1025,0,-0.1865,-0.176,-0.1712,-0.1628,-0.1572,-0.1531,-0.1481,-0.1423,-0.1381,-0.1328,-0.1281,-0.122,-0.1211,-0.1184,-0.1149,-0.1099,-0.1069,-0.1101,-0.1025,-0.1022,-0.1043,-0.1013,-0.1021,-0.0982,-0.1019,-0.1018,-0.1017,0,-0.1803,-0.1742,-0.1653,-0.1575,-0.1549,-0.1505,-0.1435,-0.1384,-0.1318,-0.129,-0.1241,-0.1208,-0.1147,-0.115,-0.1065,-0.1089,-0.1055,-0.1026,-0.1023,-0.1013,-0.1017,-0.1001,-0.0969,-0.0963,-0.1006,-0.1007,-0.1008,0,-0.1806,-0.1702,-0.1635,-0.1602,-0.1509,-0.1479,-0.1439,-0.1374,-0.1333,-0.1272,-0.1245,-0.1179,-0.1142,-0.1091,-0.1041,-0.1048,-0.0961,-0.096,-0.0936,-0.0937,-0.0918,-0.0919,-0.0879,-0.0898,-0.0898,-0.0899,-0.0899,0,-0.1766,-0.1713,-0.1635,-0.1594,-0.1534,-0.148,-0.1422,-0.1379,-0.1322,-0.1272,-0.1233,-0.1188,-0.1125,-0.1071,-0.1032,-0.0968,-0.0952,-0.0928,-0.0918,-0.093,-0.0933,-0.0906,-0.0907,-0.0897,-0.0897,-0.0898,-0.0898,0,-0.1757,-0.1703,-0.1628,-0.1547,-0.1525,-0.1484,-0.1415,-0.1373,-0.1331,-0.1268,-0.1251,-0.1184,-0.1119,-0.1065,-0.0979,-0.0953,-0.0886,-0.0875,-0.0909,-0.0903,-0.0882,-0.0884,-0.0821,-0.081,-0.0838,-0.0838,-0.0838,0,-0.1734,-0.1693,-0.1607,-0.1571,-0.1532,-0.1474,-0.1433,-0.138,-0.1338,-0.1261,-0.123,-0.1162,-0.1105,-0.1004,-0.0948,-0.0883,-0.0869,-0.0852,-0.0859,-0.0874,-0.0868,-0.0871,-0.0866,-0.0851,-0.0851,-0.0851,-0.0851,0,-0.1699,-0.1675,-0.1617,-0.155,-0.1502,-0.1447,-0.139,-0.1363,-0.13,-0.1256,-0.1189,-0.1145,-0.1059,-0.0993,-0.0922,-0.0882,-0.0856,-0.0849,-0.084,-0.0852,-0.0873,-0.0861,-0.0906,-0.085,-0.085,-0.085,-0.0851,-0.0851,-0.1682,-0.1643,-0.1577,-0.1514,-0.1467,-0.1416,-0.1373,-0.1326,-0.1269,-0.1195,-0.1167,-0.1099,-0.1036,-0.0939,-0.0898,-0.0845,-0.0841,-0.0828,-0.0824,-0.0822,-0.0823,-0.0883,-0.0832,-0.0832,-0.0832,-0.0832,-0.0832,0,-0.1644,-0.16,-0.1543,-0.1466,-0.1417,-0.1397,-0.1335,-0.1295,-0.1236,-0.1179,-0.1124,-0.1048,-0.0985,-0.0925,-0.0858,-0.0827,-0.0813,-0.0811,-0.0812,-0.0803,-0.083,-0.0845,-0.0823,-0.0823,-0.0823,-0.0823,-0.0823,-0.0823,-0.1618,-0.1552,-0.152,-0.143,-0.1387,-0.132,-0.1286,-0.1239,-0.1193,-0.111,-0.1057,-0.1019,-0.0961,-0.089,-0.0831,-0.0815,-0.0792,-0.0793,-0.0774,-0.08,-0.0801,-0.0803,-0.0816,-0.0788,-0.0788,-0.0751,-0.075,-0.075]}]]